Regional Weather Roundup
Issued by NWS New Orleans/Baton Rouge, LA

Home | Current Version | Previous Version | Text Only | Print | Product List | Glossary On
Versions: 1 2 3 4 5 6 7 8 9 10 11 12 13 14 15 16 17 18 19 20 21 22 23 24 25 26 27 28 29 30 31 32 33 34 35 36 37 38 39 40 41 42 43 44 45 46 47 48 49 50
000
ASUS44 KLIX 182310
RWRLIX
NEW ORLEANS REGIONAL WEATHER ROUNDUP
NATIONAL WEATHER SERVICE NEW ORLEANS LA
500 PM CST THU DEC 18 2014

NOTE: "FAIR" INDICATES FEW OR NO CLOUDS BELOW 12,000 FEET WITH NO
      SIGNIFICANT WEATHER AND/OR OBSTRUCTIONS TO VISIBILITY.
      SKY/WX - SKY CONDITION AND SIGNIFICANT WEATHER.
      TMP - AIR TEMPERATURE.     DP    - DEWPOINT TEMPERATURE.
      RH  - RELATIVE HUMIDITY.   PRES  - PRESSURE.
      HI  - HEAT INDEX.          WCI   - WIND CHILL INDEX.

*  THESE STATIONS ARE NOT NWS OR FAA STATIONS AND ARE NOT UNDER
   NWS QUALITY CONTROL.

LAZ038-040-048-061>063-065>067-069-190000-
SOUTHEAST LOUISIANA

CITY           SKY/WX    TMP DP  RH WIND       PRES   REMARKS
N.O. AUDUBON     N/A     64  58  80 MISG        N/A
N.O. INTL ARPT CLOUDY    64  54  69 E6        30.09R
N.O. LAKEFRONT CLOUDY    64  55  72 SE8       30.11R
N.O. DOWNTOWN*   N/A     64  54  68 SE6       30.11R
SLIDELL        CLOUDY    61  52  72 NE6       30.11R
BATON ROUGE    LGT RAIN  58  52  80 NE7       30.11R
BOOTHVILLE     MOCLDY    65  57  75 SE5       30.10S
BELLE CHASSE   CLOUDY    61  57  87 SE7       30.09R
BOGALUSA*        N/A     56  51  83 N9        30.14R
GALLIANO*      CLOUDY    66  58  75 MISG      30.09R
NEW ROADS*     LGT RAIN  55  54  98 N3        30.10S
GONZALES*      DRIZZLE   60  56  88 N7        30.10R
HAMMOND*       NOT AVBL
HOUMA*           N/A     64  59  82 E5        30.09R
PORT FOURCHON* MOCLDY    66  61  82 SE9       30.11S

$$

MSZ070-080>082-190000-
SOUTHERN MISSISSIPPI

CITY           SKY/WX    TMP DP  RH WIND       PRES   REMARKS
MCCOMB         CLOUDY    50  48  93 NE5       30.12S
GULFPORT       CLOUDY    58  49  72 E5        30.12R
BILOXI         MOCLDY    58  49  72 E3        30.12S
PASCAGOULA     MOCLDY    58  48  69 SE5       30.12S
STENNIS ARPT*  MOCLDY    57  46  67 VRB5      30.12S

$$

COASTAL OBSERVATIONS
LAKE AND NEARSHORE STATIONS

STATION/POSITION TIME  TEMP    WIND        PRES    WAVE
                       AIR SEA DIR/SP/G            HT/PER
                 (UTC) (F)     (DEG/KT/KT) (MB)    (FT/S)
PASCAGOULA       2300   59      80/  3/  5 1019.6
WAVELAND YACHT   2300   57      80/  7/  7 1019.1
GRAND ISLE       2300   65 62  130/  6/  9 1019.0
SOUTHWEST PASS   2300   64                 1019.1
NEW CANAL        2300   64 58  150/  3/  5 1019.6
SHELL BEACH      2300   61 61   90/  7/  8 1018.8

OFFSHORE STATIONS

STATION/POSITION TIME  TEMP    WIND        PRES    WAVE
                       AIR SEA DIR/SP/G            HT/PER
                 (UTC) (F)     (DEG/KT/KT) (MB)    (FT/S)
64 S DAUPHIN ISL 2300   68 74  130/  6/  8 1018.9    1/ 4

$$




USA.gov is the U.S. government's official web portal to all federal, state and local government web resources and services.